Location: Emblem
(62.4273°N, 6.4710°E)
Time: 15:18:29
(UTC+01:00)

Tiros 1 - Visible Passes

Search period start: 27 January 2023 00:00
Search period end: 06 February 2023 00:00
Orbit: 628 x 662 km, 48.4° (Epoch: 26 January)

Date Brightness Start Highest point End Pass type
(mag) Time Alt. Az. Time Alt. Az. Time Alt. Az.
27 Jan 9.4 05:31:25 13° S 05:31:54 13° SSE 05:34:08 10° SE visible
27 Jan 9.5 07:10:13 10° SW 07:12:42 14° S 07:15:13 10° SSE visible
28 Jan 9.3 05:55:42 14° S 05:56:42 15° S 05:59:17 10° SE visible
28 Jan 9.5 07:35:37 10° SW 07:37:29 12° SSW 07:39:21 10° S visible
29 Jan 9.8 04:42:22 11° SE 04:42:22 11° SE 04:42:49 10° SE visible
29 Jan 9.3 06:19:58 13° SSW 06:21:29 14° S 06:24:01 10° SSE visible
30 Jan 9.5 05:06:38 13° SSE 05:06:38 13° SSE 05:08:01 10° SE visible
30 Jan 9.4 06:44:18 10° SW 06:46:16 12° SSW 06:48:14 10° S visible
31 Jan 9.3 05:30:54 14° S 05:30:54 14° S 05:32:47 10° SSE visible
01 Feb 9.3 05:55:11 13° SSW 05:55:11 13° SSW 05:57:05 10° SSE visible
